Wind_Speed
9 9 8 7 7 8 7 7 7 7 7 7 8 7 7 7 7 7 7 7 8 8 8 8 8 8 8 8 9 9 9 9 10 10 11 12 12 13 13 14 14 15 15
9 9 8 8 8 8 8 8 7 7 7 7 7 7 7 7 8 8 8 8 8 8 8 9 9 9 9 9 10 10 10 10 11 12 13 13 14 14 14 14 15 15 16
10 9 9 9 9 9 9 8 8 7 8 8 7 8 8 8 8 9 9 9 9 9 9 10 10 10 10 10 10 11 11 12 13 13 14 14 15 15 15 15 16 17 17
11 11 11 11 11 10 10 9 9 9 9 9 9 9 9 10 10 10 10 10 10 11 11 11 11 11 11 11 12 12 13 14 14 14 15 15 15 15 16 17 17 18 19
12 12 12 12 12 11 11 11 11 11 10 10 11 11 11 11 12 12 11 11 11 11 12 12 12 12 13 13 13 14 14 15 15 15 16 16 16 16 17 18 19 19 20
11 12 12 13 12 12 12 12 12 12 12 12 12 12 12 12 13 13 13 13 13 13 13 13 13 13 14 14 14 15 16 16 17 17 17 17 18 18 19 19 20 21 22
13 12 13 14 14 14 14 14 14 14 13 14 14 14 14 14 14 15 15 15 15 14 14 14 14 14 14 15 16 16 17 18 18 19 19 19 20 20 21 21 22 23 24
14 14 14 15 16 16 16 15 15 15 15 15 15 15 15 16 16 17 17 17 17 17 16 16 16 16 16 17 17 17 18 18 19 19 20 20 21 21 22 22 22 23 24
15 15 15 16 16 17 17 17 17 16 16 17 17 17 17 17 17 17 17 18 18 18 17 17 17 17 17 18 18 19 19 20 20 20 21 21 22 22 22 22 22 23 25
15 15 16 16 16 16 17 17 18 18 17 18 18 18 18 18 18 18 18 18 18 19 19 19 18 18 19 19 20 20 20 21 21 21 21 22 23 23 24 24 24 25 26
16 16 16 16 17 17 17 18 18 18 18 19 19 19 19 19 19 20 20 20 20 21 21 20 20 20 20 20 21 21 22 22 22 22 22 23 23 24 25 25 26 27 28
17 18 18 17 18 17 18 18 19 19 19 20 20 20 21 21 21 22 22 22 22 22 22 22 22 22 22 22 23 23 23 23 23 23 24 24 25 26 26 27 27 28 29
19 19 19 19 19 19 19 19 20 21 21 21 22 22 23 23 22 23 23 23 23 24 24 24 24 24 24 24 24 24 24 24 24 25 25 26 26 26 27 28 28 29 29
20 20 20 20 20 20 20 21 21 22 22 22 23 23 23 24 24 24 24 24 25 25 26 26 26 26 25 26 26 25 25 25 25 25 26 27 27 27 28 28 28 29 30
22 22 22 22 22 22 22 22 23 23 24 24 24 24 24 24 24 25 25 26 26 26 26 26 26 26 26 26 26 26 26 27 27 27 27 27 28 29 29 29 30 30 31
24 24 24 23 24 24 24 24 25 25 26 26 26 25 25 25 25 26 26 27 27 27 27 27 27 27 27 27 27 27 27 27 28 28 28 29 29 30 30 31 31 31 31
26 26 26 26 25 25 25 26 26 26 27 27 27 27 26 26 26 27 27 28 29 29 29 29 29 29 28 28 28 28 28 28 28 29 29 29 30 30 31 31 32 32 32
27 27 27 27 27 27 27 27 28 28 29 29 29 28 28 28 28 28 29 29 29 30 30 30 29 29 30 30 29 29 29 29 30 30 30 30 31 31 32 32 33 33 33
29 29 29 28 29 29 29 29 29 30 30 30 30 30 30 31 31 30 30 30 30 30 30 30 30 31 31 31 31 31 30 31 31 32 32 32 32 33 33 33 34 33 33
30 30 30 30 30 31 31 32 32 32 32 32 32 32 32 33 33 32 32 32 31 31 31 31 31 31 31 31 32 32 32 32 32 33 34 34 34 34 34 34 34 33 33
31 31 31 31 32 33 33 33 33 33 33 32 32 32 33 33 33 33 33 33 33 33 33 33 33 33 33 33 33 32 33 34 34 34 35 35 36 35 35 35 34 34 34
32 32 33 33 33 33 33 33 33 33 32 32 32 32 33 33 33 33 34 34 34 34 34 34 35 35 35 35 35 35 35 34 34 35 35 36 36 36 36 36 36 35 35
34 34 34 34 34 34 34 34 34 33 33 32 32 33 33 33 33 33 34 34 35 35 35 35 36 36 36 36 36 36 37 37 37 37 37 37 37 37 37 37 37 37 37
35 35 35 35 34 33 33 33 33 33 33 33 33 33 34 34 34 34 34 34 35 35 36 36 36 36 36 36 37 37 37 37 38 38 38 37 37 38 38 38 37 37 38
36 36 35 34 33 32 32 32 32 32 33 33 33 34 34 35 35 34 34 34 34 34 35 36 36 36 36 37 37 37 38 38 37 38 38 37 37 37 38 38 37 37 38
36 36 35 34 34 33 33 33 33 33 34 34 35 35 35 35 35 35 34 34 35 35 36 37 37 37 37 38 38 38 39 39 39 39 39 39 38 38 38 38 38 38 38
Wind_Direction
305 300 292 287 282 274 271 268 269 267 270 267 266 265 265 272 274 277 282 285 287 287 286 287 289 291 293 291 287 287 289 289 289 291 292 292 292 292 293 293 294 296 298
303 297 289 286 283 275 266 265 271 268 266 266 265 268 271 274 276 278 280 286 287 283 283 284 286 290 292 291 288 286 288 289 291 292 292 292 292 292 292 293 295 297 298
296 292 286 284 286 283 268 265 267 266 263 263 264 267 272 275 277 278 279 283 284 282 284 283 283 286 288 289 288 289 290 291 291 292 293 293 293 293 292 294 297 298 298
290 287 283 283 285 285 273 266 264 264 263 263 263 268 272 274 276 277 278 278 278 281 285 285 282 283 286 288 290 292 293 294 295 294 295 295 295 295 294 294 296 298 299
287 283 280 281 283 282 274 265 264 265 264 264 266 268 271 276 277 275 277 278 278 281 284 286 284 281 284 287 290 293 295 296 296 296 296 297 296 296 296 296 297 298 299
285 280 280 281 279 279 274 267 264 264 264 267 268 268 270 274 277 277 276 275 275 277 281 283 285 285 284 286 289 292 294 296 297 296 296 297 296 296 297 298 298 298 299
286 282 279 277 277 277 274 268 264 263 265 266 269 268 270 274 277 277 277 274 274 275 279 281 282 284 287 290 290 291 293 295 295 295 295 295 296 296 296 297 297 297 300
287 281 279 278 277 277 275 271 268 267 267 267 269 270 272 275 277 277 277 275 273 272 275 278 279 281 284 286 287 289 292 294 295 295 295 295 295 296 296 297 298 299 301
287 282 282 280 278 276 274 272 269 268 268 268 269 272 274 276 276 277 278 277 275 272 273 275 278 278 281 284 287 289 291 293 295 296 296 296 296 295 295 297 298 300 301
287 285 282 280 278 277 275 272 269 269 268 267 269 270 274 275 277 277 276 277 277 276 275 274 276 278 280 282 285 289 291 294 295 295 296 296 296 296 297 297 298 299 300
288 288 285 282 280 278 276 274 271 270 268 268 270 269 270 273 275 276 275 275 276 277 275 275 276 278 280 283 285 288 290 291 292 293 294 296 296 297 298 298 299 299 300
287 287 285 282 280 279 277 276 275 274 272 270 272 270 270 273 275 274 274 274 274 276 276 275 277 277 279 282 285 287 288 289 291 292 293 295 296 297 299 299 300 302 302
285 285 282 281 280 279 276 276 276 277 276 273 272 272 272 271 272 273 274 274 274 276 276 277 278 279 280 283 284 286 287 288 289 290 292 295 296 296 298 299 301 302 304
284 284 282 280 280 280 276 276 276 276 275 274 273 272 271 270 271 272 273 275 276 277 277 278 279 280 282 284 284 285 287 288 289 289 291 293 295 296 297 299 301 301 302
284 283 282 280 280 279 278 277 276 275 275 274 273 272 271 271 272 271 270 273 276 277 277 278 280 281 281 282 282 282 284 287 288 288 289 292 294 295 296 298 299 300 302
282 282 281 280 280 278 277 277 277 276 276 275 273 272 270 270 271 272 273 273 273 276 277 277 279 279 279 280 281 283 285 286 288 289 289 290 292 293 295 296 298 300 302
281 281 281 280 279 278 277 277 277 277 277 276 273 271 271 271 272 274 274 274 274 275 276 277 277 277 279 281 282 283 285 287 288 289 289 290 291 292 294 296 298 299 300
280 280 280 279 279 279 277 276 276 277 277 277 274 271 270 271 273 275 275 275 276 277 276 275 276 277 279 281 281 283 284 286 288 290 291 291 291 292 294 296 297 298 298
279 280 280 280 279 280 279 278 277 277 276 275 273 271 270 270 272 274 275 275 276 277 277 276 276 276 278 280 280 282 284 285 287 288 290 290 291 293 295 295 296 297 297
281 280 280 280 280 280 280 279 277 277 276 274 273 271 270 270 271 272 274 275 275 276 277 276 276 276 278 279 280 281 282 284 286 287 288 289 290 292 293 295 296 295 296
280 280 279 279 280 280 281 280 278 278 277 275 274 272 271 270 271 273 274 274 275 276 277 277 277 278 278 278 280 282 284 285 286 286 287 288 289 290 292 294 294 294 295
280 278 278 279 280 280 280 280 280 280 279 277 275 274 272 271 273 274 274 274 275 276 276 276 277 278 278 279 279 281 283 285 286 287 288 289 289 290 292 293 293 293 293
279 279 279 280 280 280 280 279 279 279 279 279 277 275 273 272 273 274 274 274 275 275 275 276 276 276 277 279 279 281 283 284 285 286 288 289 289 289 290 291 292 292 292
279 279 279 279 279 279 280 279 279 278 278 278 277 276 275 275 274 274 274 275 275 276 276 276 277 277 279 279 280 281 282 284 285 285 286 287 288 288 288 290 291 291 292
279 279 279 278 278 279 279 279 279 279 279 279 277 275 276 275 275 274 274 275 277 278 278 278 278 279 279 280 281 282 282 283 284 285 287 288 288 288 289 290 290 291 292
279 279 279 278 277 277 278 279 279 279 280 280 279 278 277 276 275 274 274 275 277 279 280 281 281 281 281 282 282 282 283 283 283 285 286 287 286 287 287 288 290 291 292
Height
5844 5843 5842 5842 5841 5841 5841 5840 5840 5840 5840 5840 5840 5840 5840 5840 5840 5840 5840 5839 5838 5838 5837 5836 5836 5835 5834 5833 5832 5832 5831 5830 5829 5828 5827 5826 5825 5823 5822 5821 5819 5818 5816
5842 5841 5840 5840 5839 5839 5838 5838 5838 5838 5838 5838 5838 5838 5838 5838 5837 5837 5837 5837 5836 5835 5834 5834 5833 5832 5831 5830 5830 5829 5828 5827 5826 5825 5824 5823 5821 5820 5818 5817 5816 5814 5812
5839 5839 5838 5837 5836 5836 5836 5835 5835 5835 5836 5835 5835 5835 5835 5835 5835 5835 5834 5834 5833 5832 5831 5831 5830 5830 5829 5828 5827 5826 5825 5824 5823 5822 5820 5819 5817 5816 5814 5813 5811 5810 5808
5836 5836 5835 5834 5834 5833 5832 5832 5832 5833 5833 5833 5833 5833 5833 5832 5832 5832 5831 5831 5830 5829 5828 5828 5827 5826 5826 5825 5824 5823 5821 5820 5819 5817 5816 5815 5813 5811 5810 5808 5807 5805 5803
5833 5832 5832 5831 5830 5829 5829 5829 5829 5829 5829 5829 5829 5829 5829 5829 5828 5828 5828 5827 5827 5826 5825 5824 5823 5823 5822 5821 5820 5819 5818 5816 5815 5813 5812 5810 5809 5807 5805 5803 5801 5799 5797
5829 5829 5828 5827 5826 5826 5826 5825 5825 5825 5826 5826 5826 5826 5825 5825 5825 5824 5824 5823 5823 5822 5821 5821 5819 5819 5818 5817 5816 5815 5813 5812 5810 5809 5807 5805 5804 5802 5800 5798 5796 5794 5792
5825 5824 5824 5823 5822 5822 5821 5821 5821 5821 5821 5822 5822 5821 5821 5821 5820 5820 5819 5819 5818 5818 5817 5816 5815 5814 5813 5812 5811 5810 5809 5807 5806 5804 5802 5800 5799 5797 5795 5792 5790 5787 5785
5821 5820 5819 5819 5818 5817 5817 5816 5816 5817 5817 5817 5817 5817 5816 5816 5816 5815 5815 5814 5814 5813 5812 5811 5810 5810 5809 5808 5806 5805 5804 5802 5800 5798 5797 5795 5793 5791 5789 5786 5784 5781 5778
5816 5815 5814 5813 5813 5812 5811 5811 5811 5812 5812 5812 5812 5812 5811 5811 5810 5810 5809 5809 5808 5807 5807 5806 5805 5804 5803 5802 5801 5800 5798 5797 5795 5793 5791 5789 5786 5784 5782 5780 5777 5774 5772
5811 5810 5809 5808 5807 5807 5806 5806 5806 5806 5806 5806 5806 5806 5806 5805 5805 5804 5804 5803 5803 5802 5801 5800 5800 5799 5798 5796 5795 5794 5792 5791 5789 5787 5785 5782 5780 5778 5775 5773 5770 5767 5764
5806 5805 5804 5803 5802 5801 5801 5800 5800 5800 5800 5800 5800 5800 5800 5799 5799 5798 5797 5797 5796 5796 5795 5794 5793 5792 5791 5790 5789 5788 5786 5784 5782 5780 5778 5776 5773 5771 5768 5766 5763 5760 5757
5800 5799 5798 5797 5796 5796 5795 5795 5794 5794 5794 5794 5794 5794 5793 5793 5792 5792 5791 5790 5790 5789 5788 5787 5787 5786 5785 5783 5782 5781 5779 5777 5775 5773 5771 5769 5767 5764 5761 5758 5755 5752 5749
5795 5793 5792 5791 5791 5790 5789 5789 5788 5788 5787 5787 5787 5787 5786 5786 5785 5784 5784 5783 5782 5782 5781 5780 5779 5778 5777 5776 5775 5773 5772 5770 5768 5766 5764 5762 5760 5757 5754 5751 5747 5744 5741
5788 5787 5786 5785 5784 5783 5783 5782 5781 5781 5780 5780 5779 5779 5779 5778 5777 5777 5776 5776 5775 5774 5773 5772 5771 5770 5769 5768 5767 5765 5764 5762 5760 5759 5756 5754 5752 5749 5746 5743 5740 5736 5733
5782 5781 5779 5778 5777 5776 5776 5775 5774 5774 5773 5772 5772 5771 5771 5770 5770 5769 5768 5768 5767 5766 5765 5764 5764 5762 5761 5760 5759 5757 5755 5754 5752 5750 5748 5746 5743 5741 5738 5735 5732 5728 5725
5774 5773 5772 5771 5770 5769 5768 5767 5766 5766 5765 5764 5763 5763 5762 5762 5761 5760 5760 5759 5759 5758 5757 5756 5755 5754 5753 5752 5750 5749 5747 5745 5743 5741 5739 5737 5735 5732 5729 5726 5723 5719 5716
5766 5765 5764 5763 5761 5760 5760 5759 5758 5757 5756 5755 5754 5754 5753 5753 5753 5752 5751 5751 5750 5749 5748 5748 5747 5746 5745 5743 5742 5740 5738 5736 5734 5732 5730 5728 5725 5723 5720 5717 5714 5710 5707
5758 5756 5755 5754 5753 5751 5750 5750 5749 5748 5747 5746 5745 5745 5745 5744 5744 5743 5742 5741 5740 5739 5739 5738 5737 5736 5735 5734 5733 5731 5729 5727 5725 5723 5721 5719 5716 5713 5711 5708 5704 5701 5697
5749 5747 5746 5744 5743 5742 5741 5740 5739 5738 5737 5736 5735 5735 5735 5735 5734 5733 5733 5732 5731 5730 5729 5729 5728 5727 5726 5724 5723 5722 5720 5718 5716 5714 5712 5709 5707 5704 5701 5698 5695 5691 5688
5739 5737 5736 5735 5733 5732 5731 5729 5728 5727 5726 5725 5725 5725 5724 5724 5724 5723 5723 5722 5721 5720 5719 5719 5718 5717 5715 5714 5713 5712 5710 5708 5706 5704 5702 5699 5697 5694 5691 5688 5685 5681 5678
5729 5727 5726 5724 5723 5722 5720 5719 5717 5716 5715 5714 5714 5713 5713 5712 5712 5712 5712 5711 5710 5710 5709 5708 5707 5706 5705 5704 5702 5701 5699 5698 5696 5694 5691 5689 5686 5683 5681 5678 5675 5671 5668
5718 5717 5715 5714 5712 5711 5709 5707 5706 5705 5704 5703 5702 5702 5701 5701 5701 5701 5700 5700 5699 5698 5697 5697 5696 5695 5694 5693 5691 5690 5688 5687 5685 5683 5680 5678 5675 5673 5670 5667 5664 5661 5657
5708 5706 5705 5703 5702 5700 5698 5697 5695 5694 5693 5692 5691 5690 5690 5689 5689 5689 5689 5688 5688 5687 5686 5685 5684 5683 5682 5681 5679 5678 5677 5675 5673 5671 5669 5666 5664 5661 5659 5656 5653 5649 5646
5697 5695 5694 5692 5691 5689 5688 5686 5685 5684 5682 5681 5680 5679 5679 5678 5678 5678 5678 5677 5676 5675 5674 5673 5672 5671 5670 5669 5668 5666 5664 5663 5661 5658 5656 5654 5652 5649 5647 5644 5641 5638 5635
5686 5684 5683 5681 5680 5679 5677 5676 5675 5673 5672 5670 5669 5668 5667 5667 5666 5666 5666 5666 5665 5664 5663 5661 5660 5659 5658 5657 5655 5654 5652 5650 5648 5646 5644 5642 5639 5637 5635 5632 5629 5626 5623
5674 5673 5671 5670 5669 5668 5667 5666 5664 5663 5661 5660 5658 5657 5656 5656 5655 5655 5654 5654 5653 5652 5651 5650 5648 5647 5646 5644 5643 5641 5639 5637 5635 5633 5631 5629 5627 5625 5622 5620 5617 5614 5611